Glasgow, KY

3:08 AM CDT on July 21, 2017 (GMT -0500)
Glasgow Municipal

Weather History for KGLW - September, 2013

Change the Weather History Date:

Friday, September 20, 2013

  Actual Average Record
Temperature  
Mean Temperature 76 °F -  
Max Temperature 86 °F 80 °F 94 °F (1955)
Min Temperature 67 °F 58 °F 40 °F (1991)
Cooling Degree Days 12    
Growing Degree Days 26 (Base 50)    
Moisture  
Dew Point 66 °F    
Average Humidity 75    
Maximum Humidity 100    
Minimum Humidity 51    
Precipitation  
Precipitation 0.17 in - - ()
Sea Level Pressure  
Sea Level Pressure 29.95 in    
Wind  
Wind Speed 3 mph (SSW)    
Max Wind Speed 12 mph    
Max Gust Speed -    
Visibility 9 miles    
Events Rain    
Averages and records for this station are not official NWS values.
T = Trace of Precipitation, MM = Missing Value Source: NWS Daily Summary

Daily Weather History Graph

Daily Weather History Graph

Search for Another Location

Airport or City:

Trip Planner

Search our weather history database for the weather conditions in past years. The results will help you decide how hot, cold, wet, or windy it might be!

Date:

Astronomy

Sep. 20, 2013 Rise Set
Actual Time 6:30 AM CDT 6:43 PM CDT
Civil Twilight 6:04 AM CDT 7:09 PM CDT
Nautical Twilight 5:33 AM CDT 7:39 PM CDT
Astronomical Twilight 5:02 AM CDT 8:10 PM CDT
Moon 7:20 PM CDT (9/20) 7:41 AM CDT (9/20)
Length of Visible Light 13h 05m
Length of Day
12h 13m
Full, 98% of the Moon is Illuminated
Sep 20
Full
Sep 26
Last Quarter
Oct 4
New
Oct 11
First Quarter
Oct 18
Full

Hourly Weather History & Observations

Time (CDT) Temp. Heat Index Dew Point Humidity Pressure Visibility Wind Dir Wind Speed Gust Speed Precip Events Conditions
12:15 AM 69.4 °F - 65.1 °F 86% 30.04 in 10.0 mi Calm Calm - N/A   Clear
12:35 AM 69.1 °F - 65.3 °F 88% 30.03 in 10.0 mi Calm Calm - N/A   Clear
12:55 AM 69.3 °F - 64.8 °F 86% 30.03 in 10.0 mi Calm Calm - N/A   Clear
1:15 AM 69.1 °F - 64.8 °F 86% 30.03 in 10.0 mi Calm Calm - N/A   Clear
1:35 AM 68.7 °F - 64.8 °F 87% 30.03 in 10.0 mi Calm Calm - N/A   Clear
1:55 AM 67.8 °F - 66.2 °F 95% 30.04 in 10.0 mi Calm Calm - N/A   Clear
2:15 AM 68.2 °F - 65.3 °F 90% 30.03 in 10.0 mi Calm Calm - N/A   Clear
2:35 AM 69.1 °F - 64.8 °F 86% 30.03 in 10.0 mi South 3.5 mph - N/A   Clear
2:55 AM 69.1 °F - 64.6 °F 86% 30.03 in 10.0 mi Calm Calm - N/A   Clear
3:15 AM 69.1 °F - 64.6 °F 86% 30.03 in 10.0 mi South 4.6 mph - N/A   Clear
3:35 AM 68.9 °F - 64.4 °F 86% 30.03 in 10.0 mi South 3.5 mph - N/A   Clear
3:55 AM 68.7 °F - 64.6 °F 87% 30.02 in 10.0 mi Calm Calm - N/A   Clear
4:15 AM 68.7 °F - 64.6 °F 87% 30.02 in 10.0 mi Calm Calm - N/A   Clear
4:35 AM 68.5 °F - 64.6 °F 87% 30.02 in 10.0 mi Calm Calm - N/A   Clear
4:55 AM 68.4 °F - 64.4 °F 87% 30.02 in 10.0 mi South 3.5 mph - N/A   Clear
5:15 AM 68.4 °F - 64.4 °F 87% 30.02 in 10.0 mi SSW 3.5 mph - N/A   Clear
5:35 AM 68.4 °F - 64.4 °F 87% 30.02 in 10.0 mi South 3.5 mph - N/A   Clear
5:55 AM 68.5 °F - 64.0 °F 85% 30.01 in 10.0 mi South 4.6 mph - N/A   Clear
6:15 AM 68.5 °F - 63.9 °F 85% 30.02 in 10.0 mi South 4.6 mph - N/A   Clear
6:35 AM 68.2 °F - 63.5 °F 85% 30.02 in 10.0 mi South 3.5 mph - N/A   Clear
6:55 AM 68.4 °F - 63.3 °F 84% 30.02 in 10.0 mi South 3.5 mph - N/A   Clear
7:15 AM 68.7 °F - 63.5 °F 83% 30.02 in 10.0 mi South 3.5 mph - N/A   Clear
7:35 AM 69.6 °F - 63.7 °F 81% 30.02 in 10.0 mi SSW 3.5 mph - N/A   Clear
7:55 AM 70.7 °F - 63.7 °F 78% 30.02 in 10.0 mi SSW 4.6 mph - N/A   Clear
8:15 AM 72.1 °F - 63.7 °F 75% 30.03 in 10.0 mi SSW 8.1 mph - N/A   Clear
8:35 AM 73.4 °F - 63.7 °F 71% 30.03 in 10.0 mi SW 8.1 mph - N/A   Clear
8:55 AM 73.9 °F - 63.7 °F 70% 30.03 in 10.0 mi SW 8.1 mph - N/A   Clear
9:15 AM 75.0 °F - 64.2 °F 69% 30.02 in 10.0 mi SSW 5.8 mph - N/A   Clear
9:35 AM 77.0 °F - 64.6 °F 65% 30.02 in 10.0 mi SW 8.1 mph - N/A   Clear
9:55 AM 78.4 °F - 64.4 °F 62% 30.01 in 10.0 mi SSW 9.2 mph - N/A   Clear
10:15 AM 78.6 °F - 64.4 °F 62% 30.01 in 10.0 mi SSW 8.1 mph - N/A   Clear
10:35 AM 79.9 °F - 64.4 °F 59% 30.01 in 10.0 mi SW 10.4 mph - N/A   Clear
10:55 AM 81.1 °F 82.8 °F 64.6 °F 57% 30.01 in 10.0 mi SW 11.5 mph - N/A   Scattered Clouds
11:15 AM 80.4 °F 82.0 °F 64.0 °F 57% 30.00 in 10.0 mi SSW 9.2 mph - N/A   Scattered Clouds
11:35 AM 81.1 °F 82.8 °F 64.8 °F 57% 29.99 in 10.0 mi SW 9.2 mph - N/A   Mostly Cloudy
11:55 AM 82.4 °F 84.2 °F 65.1 °F 56% 29.98 in 10.0 mi SW 11.5 mph - N/A   Scattered Clouds
12:15 PM 83.5 °F 85.5 °F 65.8 °F 55% 29.97 in 10.0 mi SW 8.1 mph - N/A   Scattered Clouds
12:35 PM 83.8 °F 86.0 °F 66.0 °F 55% 29.96 in 10.0 mi SSW 8.1 mph - N/A   Clear
12:55 PM 84.6 °F 86.8 °F 66.0 °F 54% 29.96 in 10.0 mi SSW 9.2 mph - N/A   Clear
1:15 PM 83.8 °F 86.0 °F 66.2 °F 55% 29.94 in 10.0 mi SSW 8.1 mph - N/A   Scattered Clouds
1:35 PM 84.6 °F 86.8 °F 66.2 °F 54% 29.93 in 10.0 mi SSW 9.2 mph - N/A   Scattered Clouds
1:55 PM 84.9 °F 87.1 °F 66.0 °F 53% 29.93 in 10.0 mi SSW 8.1 mph - N/A   Clear
2:15 PM 86.2 °F 88.4 °F 66.2 °F 51% 29.92 in 10.0 mi SW 10.4 mph - N/A   Scattered Clouds
2:35 PM 86.0 °F 88.2 °F 66.2 °F 51% 29.91 in 10.0 mi South 8.1 mph - N/A   Clear
2:55 PM 85.5 °F 87.6 °F 66.2 °F 52% 29.90 in 10.0 mi South 9.2 mph - N/A   Clear
3:15 PM 85.3 °F 87.4 °F 65.8 °F 52% 29.89 in 10.0 mi SW 8.1 mph - N/A   Clear
3:35 PM 84.4 °F 86.3 °F 65.3 °F 53% 29.88 in 10.0 mi SW 6.9 mph - N/A   Clear
3:55 PM 82.6 °F 84.3 °F 64.8 °F 55% 29.88 in 10.0 mi South 5.8 mph - N/A   Clear
4:15 PM 81.9 °F 83.5 °F 64.9 °F 56% 29.88 in 10.0 mi South 5.8 mph - N/A   Clear
4:35 PM 81.5 °F 83.4 °F 65.3 °F 58% 29.87 in 10.0 mi SSW 4.6 mph - N/A   Clear
4:55 PM 81.0 °F 82.9 °F 65.3 °F 59% 29.87 in 10.0 mi SSW 3.5 mph - N/A   Clear
5:15 PM 80.4 °F 82.3 °F 65.3 °F 60% 29.86 in 10.0 mi South 4.6 mph - N/A   Clear
5:35 PM 79.7 °F - 65.3 °F 61% 29.86 in 10.0 mi South 3.5 mph - N/A   Scattered Clouds
5:55 PM 79.2 °F - 65.7 °F 63% 29.86 in 10.0 mi Calm Calm - N/A   Scattered Clouds
6:15 PM 78.8 °F - 65.8 °F 64% 29.86 in 10.0 mi South 3.5 mph - N/A   Scattered Clouds
6:35 PM 78.3 °F - 65.5 °F 65% 29.86 in 10.0 mi Calm Calm - N/A   Mostly Cloudy
6:55 PM 77.7 °F - 65.7 °F 66% 29.85 in 10.0 mi Calm Calm - N/A   Mostly Cloudy
7:15 PM 77.7 °F - 65.3 °F 65% 29.85 in 10.0 mi South 3.5 mph - N/A   Overcast
7:35 PM 76.3 °F - 66.4 °F 71% 29.86 in 10.0 mi WSW 4.6 mph - N/A Rain Light Rain
7:55 PM 74.1 °F - 68.2 °F 82% 29.87 in 10.0 mi WNW 3.5 mph - N/A   Drizzle
8:15 PM 73.0 °F - 71.6 °F 95% 29.87 in 7.0 mi Calm Calm - N/A Rain Rain
8:35 PM 72.1 °F - 72.1 °F 100% 29.87 in 7.0 mi Calm Calm - N/A Rain Light Rain
8:55 PM 71.8 °F - 71.8 °F 100% 29.86 in 7.0 mi Calm Calm - N/A Rain Light Rain
9:15 PM 71.4 °F - 71.4 °F 100% 29.86 in 7.0 mi Calm Calm - N/A Rain Rain
9:35 PM 71.1 °F - 71.1 °F 100% 29.86 in 5.0 mi Calm Calm - 0.01 in Rain Light Rain
9:55 PM 70.7 °F - 70.7 °F 100% 29.86 in 5.0 mi Calm Calm - 0.02 in Rain Light Rain
10:15 PM 70.3 °F - 70.3 °F 100% 29.85 in 4.0 mi Calm Calm - 0.01 in Rain Rain
10:35 PM 70.3 °F - 70.3 °F 100% 29.86 in 3.0 mi Calm Calm - 0.03 in Rain Rain
10:55 PM 70.7 °F - 70.7 °F 100% 29.85 in 2.0 mi Calm Calm - 0.09 in Rain Light Rain
11:15 PM 70.3 °F - 70.3 °F 100% 29.85 in 5.0 mi Calm Calm - 0.01 in Rain Light Rain
11:35 PM 70.3 °F - 70.3 °F 100% 29.84 in 5.0 mi Calm Calm - 0.03 in Rain Rain
11:55 PM 70.7 °F - 70.7 °F 100% 29.83 in 5.0 mi South 4.6 mph - 0.06 in Rain Rain